| time (UTC) | temp F | wind direction | speed knots | gust knots | rain 1hr in | rain 24hr in | rain mn in | humidity % | barometer mb |
| 20260507030012 | 56 | 20 | 0.9 | 5.2 | 0.00 | 0.22 | 0.22 | 84 | 1021.0 |
| 20260507024510 | 57 | 355 | 1.7 | 5.2 | 0.00 | 0.22 | 0.22 | 85 | 1021.0 |
| 20260507023007 | 58 | 65 | 0.9 | 4.3 | 0.00 | 0.22 | 0.22 | 85 | 1021.0 |
| 20260507021505 | 58 | 360 | 1.7 | 4.3 | 0.00 | 0.22 | 0.22 | 85 | 1021.0 |
| 20260507020009 | 59 | 16 | 1.7 | 7.0 | 0.00 | 0.22 | 0.22 | 86 | 1021.0 |
| 20260507014505 | 59 | 313 | 1.7 | 5.2 | 0.00 | 0.22 | 0.22 | 85 | 1021.0 |
| 20260507013001 | 59 | 315 | 0.9 | 3.5 | 0.00 | 0.22 | 0.22 | 86 | 1021.0 |
| 20260507011600 | 60 | 297 | 1.7 | 6.1 | 0.00 | 0.22 | 0.22 | 85 | 1021.0 |
| 20260507010058 | 60 | 300 | 2.6 | 7.8 | 0.00 | 0.22 | 0.22 | 85 | 1021.0 |
| 20260507004556 | 61 | 296 | 3.5 | 7.0 | 0.00 | 0.22 | 0.22 | 87 | 1021.0 |
| 20260507003101 | 62 | 313 | 1.7 | 7.0 | 0.01 | 0.22 | 0.22 | 89 | 1021.0 |
| 20260507001602 | 62 | 322 | 1.7 | 4.3 | 0.02 | 0.22 | 0.22 | 91 | 1021.0 |
| 20260507000056 | 63 | 297 | 0.9 | 4.3 | 0.02 | 0.22 | 0.22 | 90 | 1021.0 |
| 20260506234604 | 63 | 295 | 3.5 | 8.7 | 0.02 | 0.22 | 0.22 | 90 | 1021.0 |
| 20260506233057 | 64 | 308 | 4.3 | 7.0 | 0.01 | 0.21 | 0.21 | 89 | 1021.0 |
| 20260506231556 | 64 | 302 | 4.3 | 9.6 | 0.00 | 0.20 | 0.20 | 87 | 1021.0 |
| 20260506224554 | 65 | 286 | 2.6 | 4.3 | 0.00 | 0.20 | 0.20 | 86 | 1021.0 |
| 20260506223053 | 66 | 298 | 4.3 | 7.8 | 0.00 | 0.20 | 0.20 | 85 | 1021.0 |
| 20260506221551 | 66 | 299 | 4.3 | 7.8 | 0.00 | 0.20 | 0.20 | 83 | 1021.0 |
| 20260506220053 | 66 | 311 | 6.1 | 11.3 | 0.00 | 0.20 | 0.20 | 83 | 1021.0 |
| 20260506214550 | 66 | 290 | 3.5 | 8.7 | 0.00 | 0.20 | 0.20 | 83 | 1021.0 |
| 20260506213049 | 67 | 298 | 7.0 | 13.9 | 0.00 | 0.20 | 0.20 | 82 | 1021.0 |
| 20260506211550 | 67 | 300 | 7.8 | 12.2 | 0.00 | 0.20 | 0.20 | 82 | 1021.0 |
| 20260506210048 | 68 | 299 | 7.0 | 12.2 | 0.00 | 0.20 | 0.20 | 83 | 1021.0 |
| 20260506204545 | 68 | 260 | 7.0 | 11.3 | 0.00 | 0.20 | 0.20 | 84 | 1021.0 |
| 20260506203043 | 66 | 296 | 7.8 | 11.3 | 0.00 | 0.20 | 0.20 | 83 | 1021.0 |
| 20260506201542 | 66 | 301 | 7.0 | 12.2 | 0.00 | 0.20 | 0.20 | 83 | 1021.0 |
| 20260506200042 | 66 | 300 | 5.2 | 12.2 | 0.00 | 0.20 | 0.20 | 84 | 1021.0 |
| 20260506194539 | 65 | 306 | 7.0 | 9.6 | 0.00 | 0.20 | 0.20 | 85 | 1021.0 |
| 20260506193042 | 65 | 290 | 5.2 | 8.7 | 0.00 | 0.20 | 0.20 | 85 | 1021.0 |
| 20260506191537 | 64 | 282 | 3.5 | 8.7 | 0.00 | 0.20 | 0.20 | 86 | 1021.0 |
| 20260506190040 | 64 | 275 | 3.5 | 9.6 | 0.00 | 0.20 | 0.20 | 86 | 1021.0 |
| 20260506184544 | 63 | 298 | 5.2 | 12.2 | 0.00 | 0.20 | 0.20 | 88 | 1021.0 |
| 20260506183034 | 62 | 271 | 2.6 | 7.8 | 0.00 | 0.20 | 0.20 | 89 | 1021.0 |
| 20260506181534 | 62 | 293 | 3.5 | 7.8 | 0.00 | 0.20 | 0.20 | 89 | 1021.0 |
| 20260506180034 | 61 | 305 | 2.6 | 10.4 | 0.00 | 0.20 | 0.20 | 90 | 1021.0 |
| 20260506174533 | 61 | 283 | 5.2 | 10.4 | 0.00 | 0.20 | 0.20 | 89 | 1021.0 |
| 20260506173043 | 61 | 296 | 3.5 | 7.0 | 0.00 | 0.20 | 0.20 | 90 | 1021.0 |
| 20260506171531 | 61 | 288 | 4.3 | 9.6 | 0.00 | 0.20 | 0.20 | 90 | 1021.0 |
| 20260506170034 | 61 | 279 | 3.5 | 8.7 | 0.00 | 0.20 | 0.20 | 90 | 1021.0 |
| 20260506164530 | 61 | 304 | 3.5 | 11.3 | 0.02 | 0.20 | 0.20 | 91 | 1021.0 |
| 20260506163031 | 61 | 304 | 5.2 | 11.3 | 0.02 | 0.20 | 0.20 | 91 | 1021.0 |
| 20260506161527 | 61 | 274 | 2.6 | 8.7 | 0.04 | 0.20 | 0.20 | 91 | 1021.0 |
| 20260506160026 | 61 | 333 | 3.5 | 9.6 | 0.07 | 0.20 | 0.20 | 92 | 1021.0 |
| 20260506154624 | 61 | 214 | 0.9 | 7.0 | 0.06 | 0.18 | 0.18 | 92 | 1021.0 |
| 20260506153022 | 61 | 312 | 0.9 | 6.1 | 0.07 | 0.17 | 0.17 | 92 | 1021.0 |
| 20260506151525 | 61 | 282 | 1.7 | 6.1 | 0.06 | 0.16 | 0.16 | 91 | 1021.0 |
| 20260506150020 | 61 | 292 | 3.5 | 8.7 | 0.07 | 0.13 | 0.13 | 90 | 1021.0 |
| 20260506144519 | 61 | 310 | 0.9 | 7.0 | 0.08 | 0.12 | 0.12 | 90 | 1021.0 |
| 20260506143024 | 61 | 306 | 1.7 | 6.1 | 0.07 | 0.10 | 0.10 | 90 | 1021.0 |
| 20260506141517 | 61 | 287 | 0.9 | 4.3 | 0.08 | 0.10 | 0.10 | 89 | 1021.0 |
| 20260506140016 | 61 | 298 | 0.9 | 2.6 | 0.04 | 0.06 | 0.06 | 88 | 1021.0 |
| 20260506134514 | 61 | 228 | 0.0 | 0.9 | 0.03 | 0.04 | 0.04 | 87 | 1021.0 |
| 20260506133013 | 62 | 223 | 0.0 | 1.7 | 0.02 | 0.03 | 0.03 | 87 | 1021.0 |
| 20260506131513 | 62 | 224 | 0.0 | 4.3 | 0.02 | 0.02 | 0.02 | 86 | 1021.0 |
| 20260506130011 | 62 | 294 | 0.9 | 3.5 | 0.02 | 0.02 | 0.02 | 85 | 1021.0 |
| 20260506124510 | 62 | 293 | 0.9 | 3.5 | 0.01 | 0.01 | 0.01 | 84 | 1021.0 |
| 20260506123010 | 62 | 290 | 1.7 | 5.2 | 0.01 | 0.01 | 0.01 | 83 | 1021.0 |
| 20260506121510 | 63 | 250 | 0.9 | 6.1 | 0.00 | 0.00 | 0.00 | 82 | 1021.0 |
| 20260506120011 | 63 | 297 | 0.9 | 5.2 | 0.00 | 0.00 | 0.00 | 82 | 1021.0 |
| 20260506114506 | 63 | 311 | 0.9 | 4.3 | 0.00 | 0.00 | 0.00 | 80 | 1021.0 |
| 20260506113006 | 64 | 229 | 0.9 | 4.3 | 0.00 | 0.00 | 0.00 | 79 | 1021.0 |
| 20260506111504 | 64 | 290 | 1.7 | 4.3 | 0.00 | 0.00 | 0.00 | 77 | 1021.0 |
| 20260506110003 | 64 | 219 | 0.9 | 5.2 | 0.00 | 0.00 | 0.00 | 76 | 1021.0 |
| 20260506104504 | 64 | 318 | 1.7 | 4.3 | 0.00 | 0.00 | 0.00 | 76 | 1021.0 |
| 20260506103002 | 64 | 275 | 1.7 | 7.0 | 0.00 | 0.00 | 0.00 | 75 | 1021.0 |
| 20260506101501 | 64 | 289 | 1.7 | 8.7 | 0.00 | 0.00 | 0.00 | 75 | 1021.0 |
| 20260506100120 | 64 | 267 | 2.6 | 6.1 | 0.00 | 0.00 | 0.00 | 75 | 1021.0 |
| 20260506094601 | 64 | 240 | 0.9 | 3.5 | 0.00 | 0.00 | 0.00 | 75 | 1021.0 |
| 20260506093059 | 64 | 295 | 2.6 | 6.1 | 0.00 | 0.00 | 0.00 | 74 | 1021.0 |
| 20260506091659 | 64 | 286 | 1.7 | 6.1 | 0.00 | 0.00 | 0.00 | 74 | 1021.0 |
| 20260506090058 | 64 | 288 | 0.9 | 7.8 | 0.00 | 0.00 | 0.00 | 74 | 1021.0 |
| 20260506084622 | 64 | 284 | 0.9 | 8.7 | 0.00 | 0.00 | 0.00 | 73 | 1021.0 |
| 20260506083057 | 64 | 246 | 0.9 | 2.6 | 0.00 | 0.00 | 0.00 | 73 | 1021.0 |
| 20260506081600 | 64 | 219 | 0.0 | 3.5 | 0.00 | 0.00 | 0.00 | 72 | 1021.0 |
| 20260506073053 | 65 | 250 | 0.0 | 2.6 | 0.00 | 0.00 | 0.00 | 69 | 1021.0 |
| 20260506071553 | 65 | 300 | 0.9 | 4.3 | 0.00 | 0.00 | 0.00 | 69 | 1021.0 |
| 20260506061549 | 63 | 299 | 0.0 | 0.0 | 0.00 | 0.00 | 0.00 | 69 | 1021.0 |
| 20260506044634 | 64 | 226 | 0.9 | 5.2 | 0.00 | 0.00 | 0.00 | 65 | 1021.0 |
| 20260506043039 | 63 | 315 | 0.0 | 0.0 | 0.00 | 0.00 | 0.00 | 66 | 1021.0 |
| 20260506041537 | 63 | 317 | 0.0 | 0.0 | 0.00 | 0.00 | 0.00 | 65 | 1021.0 |
| 20260506040036 | 63 | 317 | 0.0 | 0.0 | 0.00 | 0.00 | 0.00 | 66 | 1021.0 |
| 20260506034602 | 63 | 317 | 0.0 | 0.0 | 0.00 | 0.00 | 0.00 | 66 | 1021.0 |
| 20260506033138 | 64 | 317 | 0.0 | 0.0 | 0.00 | 0.00 | 0.00 | 64 | 1021.0 |
| 20260506031535 | 66 | 317 | 0.0 | 1.7 | 0.00 | 0.00 | 0.00 | 62 | 1021.0 |